Погода в Барисале

Бангладеш     22°41′45″N   90°22′13″E
темп.,
°C
ветер,
м/с
пор.,
м/с
влажн.,
%
обл.,
%
осадки,
мм/ч
давл.,
гПа
погр.,
м
27 февраля, сб
сб2700:00+21ююз25970 0.0 1007126
03:00+20ю12979 0.0 100523
06:00+19ююв22977 0.0 100628
09:00+27ю45644 0.0 1009479
12:00+35юз36192 0.0 10082661
15:00+37зсз46100 0.0 10053794
18:00+27юв610590 0.0 1005347
21:00+22ю38940 0.0 1008194
28 февраля, вс
вс2800:00+21ю23950 0.0 100863
03:00+19юз22910 0.0 100725
06:00+18ю23880 0.0 100741
09:00+27ююз35530 0.0 1010455
12:00+36юз45190 0.0 10092169
15:00+38зюз47139 0.0 10064100
18:00+29ю5104341 0.0 1006472
21:00+23ююз49850 0.0 1009223
1 марта, пн
пн100:00+21юз37960 0.0 1009186
03:00+20зюз35950 0.0 1008143
06:00+19зюз22860 0.0 100923
09:00+29ю22430 0.0 1012352
12:00+36зюз37160 0.0 10113426
15:00+38сз57120 0.0 10084095
18:00+29ю611411 0.0 1008347
21:00+24ююз49720 0.0 1010182
2 марта, вт
вт200:00+21сз34860 0.0 101069
03:00+20юз34870 0.0 100970
06:00+20ююз34860 0.0 101077
09:00+29ююз35480 0.0 1012415
12:00+37юз56200 0.0 10112362
15:00+36ююз672233 0.0 10082685
18:00+30ююз7124245 0.0 1007498
21:00+24ююз410690 0.0 1009285
3 марта, ср
ср300:00+22юз412820 0.0 1009307
03:00+21зюз39930 0.0 1008232
06:00+20ююз24950 0.0 100998
09:00+28юз47570 0.0 1011727
12:00+36юз56240 0.0 10101992
15:00+38зюз47140 0.0 10073267
18:00+28ю712500 0.0 1008403
21:00+23юз411750 0.0 1010281